Weather in West Palm Beach

United States     26°42′21″N   80°03′02″W
temp.,
°C
wind,
m/s
gust,
m/s
humid.,
%
clouds,
%
prec.,
mm/h
press.,
hPa
HPBL,
m
16 may, sun
sun1623:00+24ne78645 0.0 10201247
02:00+24ne776493 0.0 10191179
05:00+24ne565898 0.0 10191284
08:00+25ne6760100 0.1 10201320
11:00+24ne8872100 0.9 1022992
14:00+25ne996385 1.6 10211359
17:00+24ne876398 0.2 10201274
20:00+24ne7763100 0.2 10201271
17 may, mon
mon1723:00+23ene6764100 0.0 10211102
02:00+23ene5664100 0.1 10201024
05:00+23ene4562100 0.0 1019928
08:00+24ene5560100 0.0 10201175
11:00+25ene6653100 0.0 10211504
14:00+25e655269 0.0 10201563
17:00+25e665276 0.0 10191553
20:00+25e665728 0.0 10201567
18 may, tue
tue1823:00+24ene786644 0.2 1020967
02:00+24e796696 0.7 10191117
05:00+24e6762100 0.0 1018942
08:00+25e7761100 0.1 10201318
11:00+26e7755100 0.0 10211494
14:00+26ene8755100 0.0 10201525
17:00+26e785718 0.0 10191424
20:00+25e8965100 0.1 10191191
19 may, wed
wed1923:00+25ene9106895 0.1 10201218
02:00+25ene8963100 0.1 10191255
05:00+25e79626 0.0 10181181
08:00+25e897231 0.2 10191078
11:00+26e9106946 0.9 10201266
14:00+26e9116619 2.2 10201335
17:00+26e10116626 1.0 10191366
20:00+25e911745 2.6 10191103
20 may, thu
thu2023:00+25e10137248 0.7 10201278
02:00+25e91171100 1.0 10191262
05:00+25e9106799 0.3 10191223
08:00+25e91161100 0.4 10201432
11:00+25e91060100 0.2 10211508
14:00+26ene101058100 0.3 10211730
17:00+26ene101158100 0.1 10201750
20:00+25ene101166100 0.3 10201380